Terug naar catalogus

STARLINK-31954

ActiefCommunicatieVLEO
NORAD 60102·PAYLOAD·🇺🇸 United States

Gelanceerd Jun 23, 2024 vanaf Cape Canaveral Space Force Station

Loading…

Volgende Passages (komende 24 uur)

TLE

VersSource: CelesTrak SupGP

Epoch: Sep 14, 2026, 22:09 UTC

1 60102C 24117M   26257.92340278  .00031408  00000+0  92771-3 0  2572
2 60102  53.1566 236.0699 0001385  98.9664  72.7863 15.34382593    18

Volg STARLINK-31954 in realtime met AllMySat

Download on the App Store